QPF
0.04 0.03 0.02 0.01 0.01 0.02 0.03 0.04 0.04 0.04 0.02 0.01 0.01 0.01 0.01 0.01 0.00 0.00 0.01 0.01 0.02 0.02 0.02 0.03 0.03 0.02 0.03 0.04 0.05 0.05 0.04 0.04 0.04 0.03 0.03 0.03 0.03 0.03 0.03 0.04 0.04 0.04 0.04
0.04 0.04 0.02 0.01 0.01 0.01 0.03 0.04 0.04 0.05 0.03 0.02 0.01 0.00 0.00 0.00 0.00 0.00 0.01 0.01 0.01 0.01 0.01 0.02 0.03 0.03 0.04 0.05 0.05 0.04 0.04 0.04 0.04 0.03 0.03 0.03 0.04 0.03 0.03 0.03 0.02 0.02 0.01
0.04 0.04 0.04 0.02 0.01 0.01 0.02 0.03 0.04 0.05 0.04 0.03 0.02 0.01 0.01 0.00 0.00 0.00 0.00 0.00 0.00 0.01 0.01 0.01 0.02 0.02 0.03 0.04 0.05 0.04 0.04 0.04 0.04 0.04 0.04 0.03 0.03 0.04 0.04 0.03 0.03 0.02 0.01
0.04 0.03 0.03 0.03 0.02 0.02 0.02 0.02 0.04 0.04 0.03 0.03 0.02 0.02 0.02 0.01 0.01 0.01 0.01 0.01 0.01 0.01 0.01 0.01 0.01 0.02 0.02 0.03 0.05 0.05 0.04 0.04 0.04 0.03 0.03 0.04 0.04 0.04 0.05 0.04 0.04 0.02 0.02
0.04 0.03 0.02 0.03 0.03 0.02 0.02 0.03 0.03 0.04 0.03 0.02 0.02 0.02 0.02 0.01 0.01 0.01 0.01 0.01 0.02 0.01 0.01 0.01 0.01 0.02 0.02 0.02 0.04 0.05 0.05 0.04 0.04 0.04 0.04 0.04 0.05 0.06 0.05 0.04 0.03 0.03 0.03
0.06 0.04 0.03 0.03 0.04 0.03 0.03 0.04 0.04 0.05 0.04 0.02 0.02 0.02 0.02 0.01 0.01 0.01 0.01 0.01 0.02 0.03 0.03 0.02 0.02 0.02 0.02 0.02 0.03 0.05 0.04 0.04 0.04 0.04 0.04 0.04 0.05 0.06 0.06 0.05 0.04 0.03 0.02
0.08 0.05 0.03 0.03 0.04 0.04 0.04 0.03 0.04 0.05 0.04 0.03 0.02 0.03 0.03 0.03 0.01 0.01 0.01 0.01 0.01 0.02 0.03 0.04 0.04 0.04 0.02 0.02 0.02 0.04 0.04 0.04 0.04 0.06 0.06 0.04 0.04 0.05 0.06 0.06 0.05 0.03 0.03
0.08 0.06 0.05 0.03 0.03 0.04 0.04 0.04 0.04 0.05 0.05 0.04 0.03 0.03 0.04 0.04 0.02 0.01 0.01 0.01 0.01 0.01 0.02 0.03 0.03 0.03 0.03 0.02 0.01 0.02 0.04 0.04 0.04 0.05 0.09 0.09 0.07 0.06 0.06 0.06 0.05 0.04 0.03
0.08 0.05 0.04 0.05 0.04 0.04 0.04 0.03 0.03 0.05 0.05 0.04 0.03 0.04 0.04 0.04 0.03 0.02 0.01 0.01 0.01 0.01 0.01 0.01 0.02 0.03 0.02 0.02 0.02 0.01 0.02 0.04 0.05 0.06 0.08 0.10 0.11 0.10 0.08 0.07 0.05 0.04 0.04
0.12 0.08 0.06 0.05 0.07 0.06 0.05 0.05 0.04 0.04 0.05 0.04 0.03 0.03 0.04 0.04 0.03 0.02 0.01 0.01 0.01 0.01 0.02 0.02 0.02 0.03 0.03 0.03 0.02 0.02 0.02 0.03 0.04 0.05 0.06 0.07 0.08 0.09 0.08 0.06 0.05 0.05 0.05
0.14 0.13 0.11 0.08 0.07 0.09 0.08 0.06 0.06 0.05 0.05 0.03 0.03 0.03 0.02 0.02 0.02 0.02 0.02 0.02 0.01 0.01 0.01 0.01 0.02 0.03 0.03 0.03 0.03 0.03 0.03 0.03 0.03 0.03 0.03 0.04 0.05 0.06 0.06 0.06 0.06 0.05 0.05
0.13 0.14 0.13 0.09 0.08 0.08 0.10 0.09 0.08 0.07 0.06 0.04 0.02 0.02 0.02 0.02 0.02 0.01 0.01 0.02 0.02 0.01 0.01 0.01 0.01 0.02 0.02 0.02 0.02 0.03 0.03 0.02 0.03 0.02 0.02 0.03 0.04 0.04 0.04 0.05 0.05 0.06 0.06
0.13 0.13 0.13 0.12 0.09 0.07 0.08 0.10 0.09 0.08 0.07 0.06 0.03 0.01 0.01 0.02 0.03 0.03 0.01 0.01 0.01 0.01 0.01 0.01 0.01 0.01 0.01 0.01 0.01 0.01 0.01 0.01 0.02 0.02 0.02 0.02 0.02 0.03 0.03 0.04 0.06 0.07 0.06
0.12 0.13 0.13 0.15 0.15 0.12 0.09 0.09 0.08 0.08 0.07 0.07 0.04 0.01 0.01 0.02 0.03 0.04 0.03 0.02 0.01 0.01 0.01 0.01 0.01 0.01 0.01 0.01 0.01 0.01 0.01 0.01 0.01 0.01 0.02 0.02 0.02 0.02 0.02 0.03 0.05 0.07 0.08
0.11 0.11 0.11 0.13 0.16 0.16 0.15 0.13 0.12 0.10 0.07 0.07 0.06 0.04 0.02 0.02 0.02 0.03 0.04 0.04 0.03 0.02 0.01 0.01 0.02 0.01 0.01 0.01 0.02 0.02 0.01 0.01 0.01 0.00 0.00 0.01 0.01 0.00 0.00 0.01 0.02 0.03 0.07
0.06 0.06 0.08 0.09 0.11 0.11 0.11 0.11 0.12 0.12 0.10 0.08 0.07 0.06 0.05 0.03 0.03 0.03 0.04 0.05 0.04 0.03 0.02 0.01 0.01 0.01 0.01 0.01 0.01 0.01 0.01 0.01 0.00 0.00 0.00 0.00 0.00 0.00 0.00 0.00 0.01 0.01 0.02
0.04 0.03 0.04 0.05 0.07 0.09 0.09 0.09 0.08 0.10 0.10 0.08 0.07 0.07 0.07 0.05 0.04 0.03 0.03 0.04 0.04 0.04 0.03 0.02 0.01 0.01 0.00 0.00 0.00 0.00 0.00 0.00 0.00 0.00 0.00 0.00 0.00 0.00 0.00 0.00 0.00 0.01 0.01
0.03 0.02 0.02 0.03 0.03 0.05 0.05 0.06 0.07 0.07 0.08 0.08 0.06 0.06 0.07 0.07 0.05 0.04 0.03 0.02 0.02 0.02 0.02 0.01 0.01 0.00 0.00 0.00 0.00 0.00 0.00 0.00 0.00 0.00 0.00 0.00 0.00 0.00 0.00 0.00 0.00 0.00 0.01
0.02 0.02 0.01 0.02 0.02 0.03 0.03 0.03 0.04 0.04 0.04 0.05 0.06 0.05 0.05 0.05 0.06 0.06 0.05 0.03 0.02 0.02 0.02 0.01 0.01 0.01 0.00 0.00 0.00 0.00 0.00 0.00 0.00 0.00 0.00 0.00 0.00 0.00 0.00 0.00 0.00 0.00 0.00
0.01 0.01 0.01 0.01 0.01 0.02 0.02 0.03 0.03 0.04 0.03 0.03 0.04 0.04 0.04 0.03 0.03 0.03 0.04 0.04 0.03 0.03 0.02 0.02 0.01 0.01 0.01 0.00 0.00 0.00 0.00 0.00 0.00 0.00 0.00 0.00 0.00 0.00 0.00 0.00 0.00 0.00 0.00
0.02 0.01 0.01 0.01 0.01 0.01 0.02 0.02 0.03 0.03 0.03 0.03 0.03 0.04 0.04 0.04 0.03 0.03 0.03 0.03 0.03 0.02 0.02 0.02 0.01 0.01 0.01 0.00 0.00 0.00 0.00 0.00 0.00 0.00 0.00 0.00 0.00 0.00 0.00 0.00 0.00 0.00 0.00
0.02 0.02 0.01 0.01 0.01 0.01 0.02 0.02 0.02 0.03 0.03 0.03 0.03 0.03 0.03 0.04 0.03 0.03 0.03 0.03 0.03 0.02 0.02 0.02 0.02 0.01 0.01 0.00 0.00 0.00 0.00 0.00 0.00 0.00 0.00 0.00 0.00 0.00 0.00 0.00 0.00 0.00 0.00
0.02 0.02 0.02 0.02 0.01 0.01 0.01 0.02 0.02 0.03 0.03 0.03 0.03 0.03 0.03 0.04 0.04 0.03 0.03 0.02 0.02 0.02 0.02 0.02 0.01 0.01 0.01 0.00 0.00 0.00 0.00 0.00 0.00 0.00 0.00 0.00 0.00 0.00 0.00 0.00 0.00 0.00 0.00
0.02 0.02 0.03 0.02 0.01 0.01 0.01 0.02 0.02 0.02 0.03 0.04 0.04 0.03 0.03 0.03 0.04 0.04 0.04 0.03 0.03 0.02 0.02 0.01 0.01 0.01 0.01 0.01 0.00 0.00 0.00 0.00 0.00 0.00 0.00 0.00 0.00 0.00 0.00 0.00 0.00 0.00 0.00
0.03 0.02 0.03 0.03 0.02 0.01 0.02 0.01 0.02 0.02 0.02 0.03 0.04 0.04 0.04 0.03 0.04 0.04 0.03 0.03 0.03 0.03 0.02 0.02 0.02 0.02 0.02 0.01 0.01 0.01 0.00 0.00 0.00 0.00 0.00 0.00 0.00 0.00 0.00 0.00 0.00 0.00 0.00
0.04 0.03 0.03 0.02 0.02 0.02 0.02 0.02 0.02 0.02 0.02 0.03 0.04 0.04 0.05 0.05 0.05 0.05 0.04 0.04 0.04 0.03 0.03 0.03 0.02 0.02 0.02 0.01 0.01 0.00 0.01 0.01 0.01 0.00 0.00 0.00 0.00 0.00 0.00 0.00 0.00 0.00 0.00
MSLP
1020.63 1020.71 1020.74 1020.75 1020.76 1020.79 1020.84 1020.90 1020.93 1020.91 1020.83 1020.69 1020.48 1020.25 1020.01 1019.80 1019.63 1019.52 1019.45 1019.42 1019.41 1019.39 1019.36 1019.30 1019.21 1019.09 1018.94 1018.77 1018.57 1018.34 1018.07 1017.77 1017.45 1017.11 1016.78 1016.48 1016.20 1015.97 1015.79 1015.64 1015.52 1015.43 1015.37
1020.71 1020.77 1020.79 1020.80 1020.83 1020.89 1020.98 1021.06 1021.12 1021.12 1021.05 1020.90 1020.69 1020.44 1020.18 1019.96 1019.79 1019.68 1019.64 1019.63 1019.65 1019.67 1019.66 1019.62 1019.54 1019.41 1019.24 1019.04 1018.81 1018.54 1018.24 1017.93 1017.60 1017.27 1016.95 1016.66 1016.40 1016.18 1016.00 1015.84 1015.71 1015.60 1015.51
1020.76 1020.80 1020.82 1020.85 1020.91 1021.01 1021.13 1021.25 1021.33 1021.35 1021.29 1021.13 1020.91 1020.65 1020.38 1020.15 1019.97 1019.87 1019.83 1019.84 1019.87 1019.91 1019.92 1019.89 1019.82 1019.69 1019.52 1019.30 1019.05 1018.77 1018.48 1018.16 1017.84 1017.53 1017.24 1016.97 1016.74 1016.54 1016.36 1016.21 1016.07 1015.95 1015.84
1020.79 1020.83 1020.87 1020.93 1021.02 1021.16 1021.32 1021.47 1021.57 1021.60 1021.54 1021.38 1021.16 1020.89 1020.62 1020.38 1020.19 1020.08 1020.04 1020.04 1020.08 1020.12 1020.13 1020.11 1020.04 1019.92 1019.75 1019.55 1019.31 1019.04 1018.75 1018.46 1018.17 1017.88 1017.61 1017.37 1017.16 1016.98 1016.82 1016.67 1016.53 1016.40 1016.28
1020.84 1020.89 1020.94 1021.03 1021.16 1021.33 1021.51 1021.68 1021.80 1021.84 1021.79 1021.64 1021.42 1021.16 1020.89 1020.65 1020.46 1020.34 1020.28 1020.27 1020.28 1020.31 1020.31 1020.28 1020.21 1020.10 1019.95 1019.77 1019.55 1019.32 1019.06 1018.80 1018.53 1018.28 1018.03 1017.81 1017.61 1017.44 1017.28 1017.14 1017.01 1016.87 1016.74
1020.89 1020.95 1021.02 1021.13 1021.29 1021.48 1021.69 1021.87 1022.01 1022.06 1022.02 1021.89 1021.69 1021.45 1021.20 1020.97 1020.78 1020.65 1020.57 1020.53 1020.52 1020.51 1020.48 1020.44 1020.36 1020.25 1020.12 1019.97 1019.79 1019.59 1019.37 1019.14 1018.91 1018.67 1018.45 1018.23 1018.04 1017.86 1017.70 1017.56 1017.42 1017.29 1017.15
1020.93 1020.99 1021.08 1021.21 1021.39 1021.60 1021.81 1022.01 1022.16 1022.23 1022.22 1022.12 1021.97 1021.77 1021.55 1021.35 1021.18 1021.04 1020.94 1020.86 1020.80 1020.74 1020.67 1020.59 1020.49 1020.39 1020.27 1020.13 1019.99 1019.83 1019.65 1019.45 1019.24 1019.02 1018.80 1018.59 1018.39 1018.21 1018.04 1017.89 1017.75 1017.62 1017.48
1020.94 1021.00 1021.10 1021.24 1021.42 1021.64 1021.87 1022.07 1022.24 1022.34 1022.37 1022.33 1022.23 1022.09 1021.94 1021.78 1021.63 1021.50 1021.37 1021.25 1021.13 1021.01 1020.88 1020.75 1020.62 1020.50 1020.38 1020.26 1020.14 1020.01 1019.86 1019.69 1019.50 1019.29 1019.07 1018.86 1018.65 1018.45 1018.28 1018.13 1017.98 1017.85 1017.73
1020.90 1020.96 1021.06 1021.20 1021.39 1021.61 1021.84 1022.06 1022.25 1022.39 1022.47 1022.50 1022.48 1022.42 1022.34 1022.24 1022.12 1021.99 1021.84 1021.68 1021.50 1021.30 1021.11 1020.91 1020.73 1020.58 1020.44 1020.32 1020.21 1020.10 1019.97 1019.82 1019.65 1019.45 1019.24 1019.02 1018.81 1018.61 1018.43 1018.28 1018.14 1018.02 1017.90
1020.80 1020.86 1020.96 1021.11 1021.30 1021.52 1021.76 1021.99 1022.21 1022.39 1022.53 1022.63 1022.69 1022.72 1022.71 1022.67 1022.59 1022.47 1022.30 1022.09 1021.85 1021.58 1021.31 1021.05 1020.81 1020.61 1020.45 1020.31 1020.20 1020.09 1019.97 1019.84 1019.68 1019.49 1019.29 1019.08 1018.87 1018.68 1018.51 1018.37 1018.24 1018.13 1018.03
1020.66 1020.73 1020.84 1021.00 1021.19 1021.41 1021.65 1021.89 1022.13 1022.35 1022.55 1022.72 1022.85 1022.96 1023.02 1023.03 1022.98 1022.87 1022.69 1022.44 1022.14 1021.81 1021.47 1021.15 1020.85 1020.60 1020.39 1020.23 1020.10 1019.99 1019.87 1019.74 1019.59 1019.42 1019.24 1019.05 1018.86 1018.69 1018.54 1018.41 1018.30 1018.20 1018.11
1020.50 1020.60 1020.73 1020.89 1021.08 1021.31 1021.55 1021.80 1022.05 1022.29 1022.53 1022.75 1022.94 1023.11 1023.22 1023.28 1023.26 1023.15 1022.95 1022.68 1022.34 1021.96 1021.57 1021.18 1020.84 1020.54 1020.29 1020.10 1019.94 1019.81 1019.68 1019.55 1019.41 1019.25 1019.09 1018.92 1018.77 1018.62 1018.50 1018.39 1018.30 1018.22 1018.14
1020.37 1020.49 1020.64 1020.82 1021.02 1021.24 1021.48 1021.72 1021.97 1022.22 1022.47 1022.72 1022.95 1023.15 1023.30 1023.38 1023.38 1023.28 1023.07 1022.78 1022.42 1022.01 1021.59 1021.17 1020.78 1020.45 1020.17 1019.94 1019.75 1019.59 1019.45 1019.30 1019.16 1019.01 1018.86 1018.72 1018.59 1018.48 1018.38 1018.30 1018.23 1018.16 1018.08
1020.27 1020.44 1020.62 1020.82 1021.02 1021.24 1021.45 1021.68 1021.90 1022.14 1022.39 1022.64 1022.88 1023.09 1023.25 1023.34 1023.34 1023.25 1023.05 1022.76 1022.40 1021.99 1021.55 1021.12 1020.72 1020.36 1020.06 1019.79 1019.57 1019.38 1019.20 1019.04 1018.88 1018.73 1018.58 1018.45 1018.34 1018.25 1018.17 1018.10 1018.04 1017.98 1017.91
1020.24 1020.45 1020.67 1020.88 1021.09 1021.28 1021.48 1021.66 1021.86 1022.07 1022.29 1022.51 1022.73 1022.93 1023.09 1023.18 1023.19 1023.10 1022.91 1022.64 1022.29 1021.90 1021.48 1021.06 1020.67 1020.30 1019.98 1019.69 1019.43 1019.20 1018.98 1018.78 1018.59 1018.42 1018.26 1018.13 1018.01 1017.92 1017.85 1017.79 1017.74 1017.68 1017.61
1020.27 1020.54 1020.78 1021.01 1021.20 1021.38 1021.53 1021.68 1021.83 1022.00 1022.17 1022.36 1022.55 1022.73 1022.87 1022.95 1022.95 1022.87 1022.70 1022.45 1022.14 1021.78 1021.40 1021.01 1020.63 1020.28 1019.95 1019.64 1019.35 1019.07 1018.81 1018.56 1018.32 1018.11 1017.92 1017.76 1017.63 1017.52 1017.44 1017.37 1017.31 1017.25 1017.19
1020.37 1020.67 1020.94 1021.17 1021.35 1021.50 1021.62 1021.72 1021.82 1021.93 1022.06 1022.21 1022.37 1022.51 1022.63 1022.69 1022.69 1022.61 1022.46 1022.24 1021.96 1021.64 1021.30 1020.95 1020.60 1020.26 1019.93 1019.61 1019.29 1018.97 1018.66 1018.36 1018.08 1017.81 1017.58 1017.37 1017.20 1017.06 1016.95 1016.86 1016.79 1016.73 1016.67
1020.52 1020.85 1021.12 1021.35 1021.51 1021.62 1021.70 1021.76 1021.81 1021.88 1021.97 1022.08 1022.20 1022.31 1022.40 1022.45 1022.43 1022.36 1022.21 1022.01 1021.76 1021.47 1021.17 1020.85 1020.53 1020.21 1019.89 1019.55 1019.21 1018.87 1018.52 1018.17 1017.83 1017.52 1017.23 1016.98 1016.77 1016.59 1016.44 1016.32 1016.23 1016.15 1016.10
1020.70 1021.04 1021.31 1021.52 1021.66 1021.74 1021.77 1021.79 1021.81 1021.84 1021.89 1021.97 1022.05 1022.14 1022.20 1022.22 1022.19 1022.09 1021.94 1021.74 1021.50 1021.23 1020.95 1020.66 1020.36 1020.05 1019.74 1019.41 1019.06 1018.70 1018.32 1017.94 1017.57 1017.22 1016.89 1016.60 1016.34 1016.12 1015.93 1015.78 1015.67 1015.58 1015.53
1020.90 1021.23 1021.49 1021.67 1021.77 1021.82 1021.82 1021.80 1021.78 1021.78 1021.81 1021.86 1021.92 1021.97 1022.00 1021.99 1021.93 1021.81 1021.63 1021.41 1021.16 1020.89 1020.61 1020.33 1020.04 1019.74 1019.44 1019.12 1018.77 1018.41 1018.03 1017.64 1017.26 1016.89 1016.54 1016.22 1015.93 1015.68 1015.46 1015.29 1015.14 1015.04 1014.98
1021.11 1021.41 1021.64 1021.79 1021.85 1021.86 1021.83 1021.78 1021.73 1021.71 1021.71 1021.73 1021.77 1021.79 1021.79 1021.73 1021.63 1021.47 1021.25 1020.99 1020.71 1020.41 1020.12 1019.83 1019.54 1019.25 1018.96 1018.65 1018.32 1017.97 1017.61 1017.24 1016.87 1016.50 1016.16 1015.83 1015.53 1015.27 1015.03 1014.83 1014.67 1014.55 1014.48
1021.31 1021.58 1021.76 1021.87 1021.89 1021.86 1021.79 1021.71 1021.63 1021.59 1021.57 1021.56 1021.57 1021.55 1021.51 1021.41 1021.25 1021.04 1020.77 1020.46 1020.13 1019.80 1019.48 1019.17 1018.87 1018.59 1018.30 1018.01 1017.71 1017.39 1017.06 1016.72 1016.38 1016.04 1015.72 1015.41 1015.12 1014.86 1014.62 1014.41 1014.23 1014.10 1014.01
1021.49 1021.71 1021.85 1021.90 1021.88 1021.80 1021.69 1021.58 1021.48 1021.40 1021.35 1021.32 1021.29 1021.23 1021.14 1020.99 1020.78 1020.51 1020.19 1019.83 1019.46 1019.09 1018.73 1018.40 1018.09 1017.80 1017.53 1017.25 1016.98 1016.69 1016.40 1016.10 1015.79 1015.49 1015.20 1014.93 1014.66 1014.42 1014.19 1013.98 1013.80 1013.66 1013.55
1021.64 1021.81 1021.89 1021.89 1021.82 1021.70 1021.55 1021.39 1021.25 1021.14 1021.06 1020.98 1020.91 1020.82 1020.68 1020.48 1020.22 1019.90 1019.53 1019.13 1018.72 1018.32 1017.94 1017.59 1017.27 1016.98 1016.70 1016.44 1016.18 1015.92 1015.65 1015.38 1015.11 1014.85 1014.59 1014.35 1014.12 1013.90 1013.70 1013.51 1013.34 1013.20 1013.09
1021.75 1021.86 1021.89 1021.83 1021.71 1021.54 1021.34 1021.15 1020.97 1020.82 1020.69 1020.58 1020.46 1020.32 1020.14 1019.90 1019.60 1019.25 1018.85 1018.42 1017.99 1017.57 1017.18 1016.81 1016.49 1016.19 1015.91 1015.65 1015.38 1015.13 1014.86 1014.61 1014.35 1014.11 1013.87 1013.66 1013.46 1013.27 1013.11 1012.95 1012.82 1012.70 1012.61
1021.80 1021.86 1021.83 1021.73 1021.55 1021.34 1021.10 1020.86 1020.64 1020.44 1020.27 1020.11 1019.95 1019.77 1019.55 1019.28 1018.95 1018.58 1018.17 1017.74 1017.31 1016.89 1016.49 1016.13 1015.79 1015.48 1015.19 1014.90 1014.62 1014.34 1014.06 1013.78 1013.51 1013.27 1013.04 1012.84 1012.67 1012.52 1012.39 1012.29 1012.20 1012.14 1012.09
Thickness
5671 5672 5672 5671 5672 5672 5672 5672 5671 5671 5671 5671 5671 5672 5672 5672 5672 5672 5672 5672 5671 5671 5671 5671 5670 5669 5668 5666 5665 5664 5663 5662 5661 5660 5660 5659 5658 5657 5656 5655 5653 5652 5650
5666 5666 5666 5666 5666 5667 5667 5666 5666 5666 5666 5667 5667 5667 5667 5667 5667 5667 5667 5667 5666 5666 5666 5665 5665 5664 5663 5661 5660 5659 5658 5658 5657 5656 5655 5654 5654 5653 5651 5650 5648 5646 5645
5661 5660 5660 5661 5661 5661 5661 5661 5661 5661 5661 5661 5661 5661 5661 5662 5662 5662 5662 5661 5661 5660 5660 5659 5659 5658 5657 5656 5655 5654 5654 5653 5652 5652 5651 5650 5649 5648 5646 5645 5643 5641 5640
5655 5654 5654 5655 5655 5656 5656 5655 5655 5655 5655 5655 5655 5655 5656 5656 5656 5656 5656 5656 5655 5654 5654 5653 5653 5652 5651 5650 5650 5649 5649 5648 5647 5647 5646 5645 5644 5643 5642 5640 5638 5637 5636
5648 5648 5648 5648 5649 5649 5649 5650 5649 5649 5649 5649 5649 5649 5650 5650 5650 5650 5650 5649 5649 5648 5647 5647 5646 5645 5645 5644 5644 5643 5643 5642 5642 5641 5641 5640 5639 5638 5637 5635 5634 5632 5631
5641 5642 5642 5642 5643 5643 5642 5643 5642 5642 5643 5643 5643 5642 5642 5642 5643 5643 5643 5642 5642 5641 5641 5640 5639 5639 5638 5637 5637 5636 5636 5636 5635 5635 5635 5635 5634 5633 5632 5630 5629 5627 5626
5634 5635 5635 5634 5635 5635 5636 5636 5636 5635 5635 5635 5634 5633 5633 5634 5635 5635 5635 5635 5635 5634 5634 5633 5633 5632 5631 5630 5630 5629 5629 5629 5629 5629 5629 5629 5628 5628 5627 5625 5624 5622 5621
5627 5628 5628 5627 5628 5628 5628 5629 5629 5628 5628 5628 5627 5625 5623 5623 5625 5627 5627 5627 5627 5626 5626 5626 5626 5625 5624 5623 5622 5622 5622 5622 5622 5623 5623 5623 5623 5622 5621 5620 5619 5617 5616
5620 5621 5621 5621 5621 5621 5621 5622 5623 5622 5621 5620 5621 5620 5617 5615 5614 5618 5618 5619 5619 5619 5619 5619 5619 5617 5617 5616 5615 5614 5614 5615 5615 5615 5616 5616 5616 5616 5615 5614 5613 5611 5610
5613 5613 5613 5614 5614 5614 5615 5615 5617 5616 5615 5613 5612 5613 5612 5612 5609 5608 5610 5611 5612 5612 5611 5611 5611 5610 5610 5609 5608 5607 5607 5608 5608 5609 5609 5610 5610 5609 5609 5608 5607 5605 5604
5605 5605 5606 5606 5606 5606 5607 5608 5608 5609 5608 5607 5606 5604 5603 5602 5602 5601 5601 5601 5603 5604 5603 5603 5603 5602 5602 5602 5601 5600 5600 5600 5601 5601 5602 5602 5602 5602 5601 5601 5600 5599 5597
5594 5595 5597 5597 5598 5599 5600 5600 5601 5601 5601 5600 5599 5598 5597 5596 5594 5593 5592 5591 5592 5594 5594 5594 5594 5594 5594 5594 5594 5593 5592 5592 5593 5593 5594 5594 5594 5594 5594 5593 5592 5591 5590
5584 5585 5587 5589 5590 5591 5592 5593 5593 5592 5593 5592 5591 5590 5590 5590 5589 5587 5585 5583 5583 5584 5584 5585 5585 5586 5586 5585 5585 5585 5584 5584 5584 5584 5585 5585 5585 5585 5585 5584 5584 5583 5582
5575 5576 5578 5579 5580 5582 5582 5583 5584 5584 5584 5583 5582 5581 5581 5582 5581 5580 5578 5576 5574 5573 5574 5575 5575 5576 5576 5576 5576 5575 5575 5575 5575 5575 5575 5575 5575 5575 5575 5575 5574 5574 5574
5566 5567 5569 5569 5570 5571 5572 5574 5574 5575 5574 5573 5573 5573 5573 5573 5572 5572 5571 5570 5568 5566 5566 5565 5565 5566 5566 5566 5565 5566 5566 5566 5566 5566 5566 5566 5565 5565 5565 5564 5564 5564 5564
5557 5557 5558 5558 5559 5560 5562 5563 5563 5564 5564 5563 5563 5563 5563 5563 5562 5562 5561 5560 5560 5559 5557 5557 5555 5555 5555 5555 5555 5555 5556 5556 5556 5556 5556 5556 5555 5555 5554 5554 5554 5554 5554
5546 5547 5548 5548 5548 5549 5550 5552 5553 5553 5553 5553 5553 5553 5553 5553 5552 5551 5551 5550 5549 5549 5548 5547 5545 5545 5545 5545 5545 5544 5545 5545 5545 5545 5545 5545 5545 5544 5544 5544 5544 5544 5544
5536 5537 5538 5538 5538 5539 5539 5541 5542 5543 5542 5542 5543 5542 5542 5543 5542 5541 5540 5539 5538 5538 5537 5536 5535 5533 5533 5533 5533 5533 5533 5533 5533 5534 5534 5533 5533 5533 5533 5532 5532 5532 5532
5525 5526 5526 5527 5527 5527 5528 5529 5530 5531 5531 5532 5532 5532 5532 5531 5531 5530 5530 5529 5528 5527 5525 5524 5523 5521 5521 5521 5520 5520 5520 5520 5521 5522 5522 5521 5521 5521 5521 5520 5520 5520 5520
5514 5515 5515 5516 5516 5516 5517 5518 5518 5519 5520 5520 5520 5521 5521 5521 5521 5520 5519 5517 5516 5514 5512 5511 5510 5509 5508 5507 5506 5506 5507 5507 5508 5509 5509 5508 5508 5508 5508 5508 5508 5508 5508
5501 5502 5502 5503 5504 5504 5505 5506 5507 5508 5507 5507 5508 5509 5509 5509 5510 5509 5508 5506 5504 5502 5500 5498 5497 5496 5496 5494 5494 5494 5494 5494 5495 5495 5495 5496 5495 5496 5495 5495 5496 5496 5497
5489 5489 5489 5490 5491 5493 5495 5495 5495 5495 5495 5496 5496 5497 5497 5496 5496 5496 5497 5496 5495 5492 5489 5487 5486 5485 5485 5484 5483 5481 5480 5480 5482 5482 5481 5482 5482 5482 5483 5483 5484 5484 5485
5476 5477 5477 5478 5479 5480 5482 5483 5483 5483 5483 5483 5484 5484 5484 5484 5483 5483 5483 5483 5483 5482 5481 5478 5476 5476 5474 5474 5471 5469 5467 5466 5468 5468 5467 5470 5470 5470 5471 5472 5472 5473 5473
5462 5464 5465 5466 5467 5468 5470 5470 5471 5470 5470 5471 5471 5471 5471 5471 5470 5469 5469 5469 5469 5468 5468 5467 5466 5465 5464 5462 5460 5458 5456 5454 5454 5454 5453 5455 5457 5457 5459 5460 5460 5460 5460
5449 5451 5452 5452 5453 5454 5455 5456 5457 5456 5456 5457 5458 5458 5458 5458 5458 5457 5455 5455 5455 5454 5454 5453 5453 5453 5451 5449 5446 5443 5440 5439 5441 5441 5439 5440 5442 5443 5446 5448 5448 5447 5447
5437 5438 5439 5439 5440 5441 5442 5442 5442 5442 5442 5443 5443 5444 5445 5445 5445 5444 5442 5441 5441 5441 5440 5439 5438 5437 5436 5435 5433 5431 5429 5426 5426 5428 5428 5426 5427 5427 5432 5436 5435 5434 5434